Temp
63 64 66 68 70 72 73 73 74 74 75 74 75 75 75 75 75 75 75 75 76 77 77 78 78 77 77 77 76 75 74 74 74 75 75 75 75 74 74 73 73 75 74
63 64 64 67 69 70 71 72 73 73 74 75 75 75 75 75 75 75 75 76 76 77 78 77 77 76 76 75 75 73 73 72 72 72 73 73 74 74 74 73 73 74 73
61 63 63 66 68 69 69 70 72 73 74 75 75 74 75 75 75 75 76 75 76 77 78 76 76 75 75 74 73 73 72 72 71 71 71 75 76 74 74 74 73 73 73
61 62 61 65 67 68 68 69 70 71 73 73 75 74 75 75 75 75 75 75 76 77 76 76 75 75 74 73 73 72 72 71 70 70 73 75 76 72 73 72 73 73 73
60 60 60 64 65 66 67 67 68 69 71 72 73 75 74 75 75 75 74 75 74 76 76 76 75 74 73 73 72 72 72 71 69 69 73 74 75 74 73 72 72 71 71
58 58 59 63 64 65 65 66 67 68 69 70 70 71 73 74 74 74 74 74 73 74 75 75 75 74 73 73 72 72 71 70 68 69 71 73 74 73 72 71 71 70 69
57 57 57 60 62 63 63 64 64 66 67 68 69 69 69 72 72 74 74 74 73 73 72 73 74 73 73 73 72 72 70 67 71 71 71 72 73 73 72 71 70 70 69
56 56 56 56 58 59 61 62 62 64 65 66 67 68 68 68 70 72 73 73 73 71 71 72 73 73 72 72 71 70 67 66 69 70 70 72 72 73 72 71 69 69 69
56 55 54 54 55 55 57 59 60 61 62 64 65 66 67 67 66 67 68 72 72 71 72 72 72 72 72 71 70 68 66 64 70 69 70 72 71 72 71 70 69 69 68
55 54 53 53 53 53 54 56 57 58 59 61 62 62 62 64 64 64 65 67 69 70 70 71 71 70 71 70 68 66 64 63 69 68 69 70 71 72 71 70 69 69 68
55 54 53 52 52 52 55 55 53 54 56 57 60 60 61 66 66 65 63 65 69 68 67 68 68 68 68 66 65 63 63 67 68 68 69 67 70 71 70 69 69 68 68
53 54 53 52 51 51 55 52 52 54 54 56 58 60 61 63 65 65 61 62 65 65 65 66 66 63 64 65 65 64 67 66 67 67 69 68 70 71 70 69 69 69 69
53 53 53 52 51 50 51 52 52 51 52 53 56 58 60 60 62 63 63 62 64 61 64 64 62 60 63 61 63 63 66 66 67 67 67 67 70 71 70 70 69 70 69
51 51 52 51 51 50 50 50 51 51 52 51 53 57 59 59 59 61 61 63 63 63 62 61 60 59 61 61 61 62 62 64 67 66 66 63 68 70 70 70 69 69 70
49 51 51 50 50 50 49 49 50 50 50 51 53 56 58 57 57 59 61 61 62 62 61 59 58 58 59 59 58 60 61 62 63 66 66 60 64 68 69 70 70 70 71
50 50 51 50 50 49 49 48 48 49 49 51 51 54 58 58 58 59 59 60 63 62 62 60 58 58 59 59 58 59 61 62 63 64 65 66 62 65 67 69 69 70 70
50 50 50 50 49 48 47 48 48 48 49 48 51 54 56 58 58 58 59 60 62 62 60 59 57 58 58 58 58 58 60 62 63 63 64 65 65 60 64 67 67 68 69
49 48 50 51 48 47 46 47 48 47 47 48 52 53 55 56 58 57 57 58 61 60 59 57 57 56 57 57 57 57 59 61 62 61 62 63 63 65 61 62 64 66 67
48 48 48 47 46 45 46 46 46 46 47 49 50 52 54 54 55 56 56 57 58 59 58 58 57 57 56 57 57 57 57 58 59 60 60 60 60 59 58 58 58 60 64
46 46 46 46 45 45 45 45 46 46 47 47 49 52 52 52 54 55 55 56 57 59 58 58 57 57 57 57 57 57 57 57 57 58 60 59 58 57 56 55 55 56 59
45 45 45 44 44 44 43 42 42 42 43 46 49 51 52 51 53 53 55 55 57 57 59 58 57 57 56 57 56 55 53 54 54 54 55 53 52 51 52 53 54 53 53
44 43 44 44 43 43 43 42 42 42 43 44 49 50 51 51 52 53 54 55 56 57 59 58 58 57 56 58 54 54 50 51 51 51 51 50 49 50 50 52 50 49 50
42 42 43 42 43 43 42 43 42 43 44 46 46 48 49 50 51 52 53 54 54 57 58 59 59 58 55 57 58 55 51 49 49 50 48 48 48 48 50 49 48 48 49
42 41 41 42 42 44 42 41 39 39 39 43 44 46 48 50 50 51 52 53 54 56 59 59 61 59 58 55 55 54 56 57 51 46 49 47 47 46 46 46 45 46 46
40 40 40 40 41 42 42 40 39 39 40 42 44 45 47 49 50 50 51 52 52 55 59 61 60 59 58 57 56 53 54 53 56 53 46 44 44 43 44 44 43 43 45
39 39 39 39 40 41 41 40 39 38 39 40 42 43 45 46 48 49 50 51 54 56 60 60 60 59 58 58 56 56 54 55 52 53 51 47 44 41 42 42 42 42 42
MSLP
1020.24 1020.11 1019.65 1019.15 1018.55 1018.00 1017.52 1017.15 1016.86 1016.58 1016.49 1016.38 1016.24 1016.29 1016.40 1016.42 1016.42 1016.46 1016.59 1016.68 1016.89 1016.89 1016.68 1016.85 1017.06 1017.16 1017.25 1017.48 1017.82 1018.10 1018.50 1018.73 1018.85 1019.00 1019.25 1019.46 1019.59 1019.70 1019.87 1020.15 1020.18 1020.24 1020.46
1020.62 1020.26 1019.86 1019.29 1018.85 1018.42 1017.91 1017.42 1016.88 1016.65 1016.35 1016.21 1016.12 1016.08 1016.32 1016.46 1016.43 1016.35 1016.50 1016.59 1016.77 1016.98 1016.88 1016.77 1017.00 1017.26 1017.44 1017.62 1017.98 1018.36 1018.55 1019.00 1019.26 1019.50 1019.51 1019.71 1019.89 1020.04 1020.09 1020.33 1020.43 1020.59 1020.75
1020.61 1020.30 1019.99 1019.49 1019.10 1018.78 1018.38 1017.81 1017.07 1016.67 1016.34 1016.12 1016.06 1016.06 1016.17 1016.19 1016.35 1016.41 1016.33 1016.41 1016.44 1016.78 1016.67 1016.87 1017.06 1017.40 1017.81 1018.07 1018.21 1018.41 1018.76 1019.11 1019.58 1019.78 1019.86 1019.88 1020.04 1020.33 1020.36 1020.46 1020.56 1020.81 1020.95
1020.69 1020.51 1020.30 1019.79 1019.42 1019.01 1018.64 1018.14 1017.45 1016.93 1016.48 1016.22 1016.05 1016.02 1015.96 1015.93 1016.04 1016.13 1016.21 1016.17 1016.23 1016.45 1016.63 1016.73 1017.15 1017.71 1018.03 1018.30 1018.44 1018.59 1018.87 1019.19 1019.60 1019.92 1020.01 1020.14 1020.25 1020.55 1020.58 1020.79 1020.75 1020.99 1021.27
1020.80 1020.69 1020.45 1019.97 1019.58 1019.19 1018.88 1018.48 1017.92 1017.39 1016.73 1016.19 1015.99 1015.83 1015.91 1015.87 1015.93 1015.86 1016.03 1016.05 1016.17 1016.29 1016.60 1016.80 1017.11 1017.86 1018.13 1018.38 1018.69 1018.93 1019.09 1019.28 1019.60 1019.97 1020.08 1020.38 1020.53 1020.65 1021.01 1021.22 1021.36 1021.53 1021.68
1021.03 1020.85 1020.58 1020.07 1019.74 1019.43 1019.07 1018.69 1018.18 1017.66 1017.13 1016.46 1016.25 1016.02 1015.86 1015.73 1015.89 1015.97 1015.95 1015.98 1015.95 1016.23 1016.42 1016.65 1017.24 1017.80 1018.31 1018.42 1018.86 1019.16 1019.46 1019.57 1019.82 1019.99 1020.12 1020.57 1020.72 1020.95 1021.27 1021.46 1021.59 1021.93 1022.08
1020.83 1020.81 1020.62 1020.17 1019.85 1019.64 1019.23 1018.78 1018.37 1017.89 1017.49 1017.07 1016.47 1016.50 1016.08 1015.74 1015.62 1015.67 1015.91 1015.85 1015.92 1016.03 1016.28 1016.64 1017.20 1017.75 1018.21 1018.50 1018.80 1019.27 1019.70 1019.96 1019.97 1020.06 1020.39 1020.67 1020.85 1021.07 1021.52 1021.68 1021.84 1022.01 1022.34
1020.70 1020.60 1020.58 1020.28 1020.04 1019.82 1019.45 1019.03 1018.67 1018.16 1017.70 1017.32 1016.97 1016.48 1016.56 1016.39 1015.82 1015.78 1015.78 1015.82 1015.98 1016.08 1016.24 1016.60 1017.09 1017.53 1018.15 1018.51 1018.89 1019.32 1019.86 1020.07 1020.32 1020.51 1020.66 1020.81 1021.02 1021.17 1021.61 1021.89 1022.14 1022.16 1022.49
1020.56 1020.58 1020.39 1020.21 1020.22 1020.00 1019.61 1019.12 1018.76 1018.27 1017.94 1017.55 1017.20 1016.77 1016.43 1016.40 1016.25 1016.10 1016.22 1015.69 1015.87 1016.09 1016.27 1016.57 1017.09 1017.38 1018.04 1018.54 1018.93 1019.37 1019.87 1020.12 1020.28 1020.65 1020.95 1020.95 1021.26 1021.42 1021.77 1022.01 1022.21 1022.29 1022.49
1020.51 1020.52 1020.38 1020.37 1020.29 1020.10 1019.78 1019.27 1018.92 1018.48 1018.17 1017.78 1017.41 1017.02 1016.72 1016.42 1016.49 1016.17 1016.46 1016.33 1015.87 1016.18 1015.88 1016.56 1017.09 1017.50 1018.15 1018.52 1018.95 1019.41 1020.01 1020.34 1020.42 1020.77 1021.04 1021.18 1021.27 1021.47 1022.03 1022.20 1022.24 1022.39 1022.48
1020.41 1020.39 1020.40 1020.37 1020.32 1020.15 1019.80 1019.45 1019.13 1018.54 1018.10 1017.78 1017.45 1016.99 1016.66 1016.27 1016.12 1016.20 1016.18 1016.33 1015.69 1016.39 1016.68 1016.96 1017.15 1017.60 1018.27 1018.64 1019.04 1019.55 1020.14 1020.46 1020.68 1020.86 1021.10 1021.26 1021.35 1021.57 1022.05 1022.24 1022.27 1022.40 1022.40
1020.07 1020.12 1020.23 1020.37 1020.23 1019.98 1019.66 1019.55 1019.28 1018.78 1018.48 1018.04 1017.60 1017.05 1016.87 1016.41 1016.08 1016.12 1016.21 1016.18 1015.76 1016.28 1016.49 1016.72 1017.35 1018.18 1018.52 1018.81 1019.23 1019.76 1020.20 1020.67 1020.89 1021.10 1021.35 1021.40 1021.51 1021.72 1021.98 1022.15 1022.23 1022.34 1022.33
1019.92 1019.96 1019.96 1020.00 1020.09 1019.97 1019.65 1019.30 1019.04 1018.88 1018.53 1018.30 1017.83 1017.30 1016.99 1016.65 1016.29 1016.17 1015.98 1015.99 1015.95 1016.38 1016.63 1017.36 1018.09 1018.59 1018.99 1019.20 1019.49 1020.06 1020.43 1020.76 1021.06 1021.35 1021.40 1021.61 1021.72 1021.89 1022.01 1022.12 1022.17 1022.18 1022.14
1019.79 1019.67 1019.73 1019.73 1019.61 1019.69 1019.58 1019.49 1019.24 1018.79 1018.50 1018.25 1018.08 1017.60 1017.19 1016.70 1016.68 1016.30 1016.13 1016.24 1016.02 1016.21 1016.24 1017.19 1017.95 1018.74 1019.31 1019.56 1019.95 1020.26 1020.83 1020.93 1021.22 1021.51 1021.70 1021.87 1022.01 1022.09 1022.03 1022.09 1022.19 1022.19 1022.09
1019.42 1019.34 1019.42 1019.32 1019.40 1019.47 1019.42 1019.43 1019.12 1018.72 1018.50 1018.16 1017.95 1017.66 1017.27 1016.92 1016.75 1016.51 1016.29 1016.42 1016.15 1016.35 1016.91 1017.41 1018.18 1019.06 1019.45 1019.71 1020.11 1020.79 1020.88 1021.06 1021.56 1021.74 1021.93 1022.14 1022.25 1022.31 1022.21 1022.17 1022.14 1022.17 1022.10
1018.94 1019.05 1019.13 1019.06 1019.20 1019.26 1019.28 1019.26 1018.98 1018.69 1018.49 1018.17 1017.72 1017.53 1017.21 1016.91 1016.61 1016.64 1016.44 1016.14 1016.37 1016.46 1016.81 1017.41 1018.34 1019.17 1019.46 1019.69 1020.36 1020.80 1021.19 1021.35 1021.77 1021.83 1022.14 1022.29 1022.54 1022.66 1022.54 1022.39 1022.35 1022.38 1022.29
1018.56 1018.85 1018.94 1018.97 1019.19 1019.24 1019.18 1018.99 1018.75 1018.44 1018.19 1018.07 1017.77 1017.22 1017.17 1016.86 1016.71 1016.44 1016.50 1016.60 1016.08 1016.36 1016.87 1017.37 1018.13 1019.07 1019.55 1019.78 1020.51 1020.87 1021.59 1021.60 1021.79 1021.95 1022.22 1022.48 1022.69 1022.85 1022.79 1022.78 1022.70 1022.75 1022.69
1018.60 1018.75 1018.87 1018.92 1019.08 1019.15 1018.96 1018.78 1018.48 1018.20 1018.02 1017.89 1017.43 1017.19 1017.14 1016.94 1016.67 1016.71 1016.47 1016.23 1015.95 1016.27 1016.73 1017.43 1017.75 1018.96 1019.40 1019.92 1020.55 1021.15 1021.65 1021.53 1021.97 1021.99 1022.44 1022.59 1022.81 1023.02 1023.19 1023.25 1023.21 1023.28 1023.10
1018.53 1018.68 1018.83 1019.04 1019.06 1018.90 1018.73 1018.57 1018.33 1018.05 1017.84 1017.69 1017.44 1017.21 1017.03 1017.08 1016.86 1016.71 1016.72 1016.39 1015.89 1015.87 1016.55 1017.42 1017.96 1018.66 1019.20 1020.08 1020.59 1021.17 1021.52 1021.77 1022.00 1022.03 1022.57 1022.73 1023.03 1023.42 1023.69 1023.86 1023.91 1023.90 1023.61
1018.78 1018.89 1019.01 1019.03 1019.00 1018.86 1018.60 1018.42 1018.13 1017.86 1017.69 1017.61 1017.28 1017.04 1016.99 1017.04 1016.94 1016.55 1016.27 1016.23 1016.29 1016.42 1016.07 1016.99 1017.79 1018.48 1018.84 1019.65 1020.45 1021.13 1021.55 1021.80 1021.99 1022.29 1022.59 1023.05 1023.55 1023.94 1024.30 1024.53 1024.43 1024.69 1024.45
1019.12 1019.11 1019.12 1019.08 1019.02 1018.94 1018.78 1018.58 1018.21 1017.91 1017.70 1017.47 1017.19 1016.95 1016.79 1016.79 1016.79 1016.59 1016.38 1016.43 1016.16 1015.96 1015.99 1016.83 1017.60 1018.24 1019.00 1019.56 1020.32 1021.02 1021.81 1022.10 1022.61 1022.98 1023.14 1023.67 1024.23 1024.72 1024.87 1025.14 1025.02 1025.16 1025.14
1019.23 1019.26 1019.17 1019.18 1019.30 1019.23 1019.03 1018.87 1018.67 1018.17 1017.78 1017.58 1017.16 1016.91 1016.68 1016.67 1016.72 1016.58 1016.30 1016.12 1016.17 1015.86 1015.71 1016.39 1017.27 1017.95 1018.41 1019.08 1019.62 1020.38 1021.62 1022.70 1023.07 1023.64 1023.90 1024.43 1024.85 1025.25 1025.44 1025.76 1025.70 1025.67 1025.72
1019.25 1019.30 1019.20 1019.36 1019.47 1019.25 1019.02 1018.80 1018.45 1018.06 1017.74 1017.42 1017.15 1016.87 1016.68 1016.46 1016.37 1016.37 1016.25 1015.99 1015.93 1015.80 1015.56 1016.25 1016.90 1017.33 1017.80 1018.73 1019.07 1019.49 1020.59 1021.60 1023.00 1024.25 1024.64 1024.99 1025.32 1025.59 1025.91 1026.28 1026.24 1026.29 1026.22
1019.26 1019.40 1019.37 1019.52 1019.49 1019.30 1018.98 1018.78 1018.67 1018.41 1018.35 1018.06 1017.64 1017.06 1016.48 1016.17 1016.07 1016.01 1015.86 1015.65 1015.61 1015.89 1015.92 1015.87 1016.54 1017.06 1017.40 1018.25 1019.22 1019.62 1019.78 1020.31 1021.89 1023.78 1024.86 1025.51 1025.81 1026.11 1026.58 1026.76 1026.72 1026.64 1026.64
1019.28 1019.39 1019.46 1019.55 1019.47 1019.31 1019.14 1019.03 1018.94 1018.72 1018.52 1018.11 1017.59 1016.97 1016.40 1016.04 1015.98 1015.68 1015.76 1015.54 1015.65 1015.61 1015.23 1015.51 1016.24 1016.66 1017.38 1017.94 1018.60 1019.50 1019.98 1020.53 1020.92 1022.12 1023.96 1025.49 1026.02 1026.72 1027.02 1027.04 1027.04 1026.91 1027.17
1019.30 1019.41 1019.39 1019.54 1019.54 1019.41 1019.15 1019.10 1018.97 1018.70 1018.49 1018.00 1017.58 1016.90 1016.34 1016.00 1015.86 1015.69 1015.38 1015.06 1014.54 1014.66 1014.72 1014.83 1015.75 1016.49 1017.11 1017.59 1018.38 1018.98 1019.34 1019.97 1020.80 1021.36 1022.97 1024.61 1025.56 1026.77 1027.14 1027.32 1027.32 1027.46 1027.38
Wind_Speed
5 12 17 18 19 20 20 19 17 11 7 4 3 3 5 6 9 11 12 11 11 11 12 11 14 14 17 16 15 14 13 11 13 17 17 16 15 15 18 17 14 14 14
7 11 17 18 19 19 20 20 18 16 8 7 7 6 7 8 10 11 11 11 12 12 12 12 14 17 17 17 15 15 15 14 17 13 15 13 14 15 16 15 15 14 14
8 10 12 19 19 18 19 21 20 19 11 9 9 8 10 10 11 11 12 12 13 14 15 15 18 17 17 17 17 17 18 18 17 10 10 11 13 12 12 13 16 16 14
7 9 10 17 18 18 18 20 21 20 16 12 10 11 10 12 13 12 12 13 15 16 15 18 18 16 17 17 18 19 20 19 15 9 8 10 10 14 18 15 16 15 12
8 8 10 15 16 17 18 18 19 21 22 13 10 10 11 12 13 12 12 14 14 16 16 18 19 16 16 18 18 18 18 17 13 9 10 9 7 12 16 15 14 15 13
4 6 9 14 16 16 17 17 17 19 20 17 11 10 9 9 11 11 12 13 15 14 18 18 18 17 17 19 18 17 16 15 12 9 10 10 9 10 11 11 13 13 11
4 5 6 12 15 16 16 16 16 18 18 20 13 11 10 4 4 7 11 12 13 15 17 18 19 18 17 18 19 17 14 12 9 9 9 8 9 10 10 11 10 10 9
4 5 5 9 13 14 15 14 16 17 17 17 18 11 7 10 7 4 4 10 12 16 15 19 19 18 16 18 18 16 14 11 8 8 7 7 9 12 11 10 9 8 7
3 4 5 6 9 12 13 13 15 15 16 17 17 16 9 9 10 10 10 5 13 14 16 18 18 18 17 16 17 15 12 11 9 6 6 6 10 11 10 9 7 7 5
3 4 5 6 6 7 7 12 14 14 14 15 14 14 13 9 11 11 9 9 8 13 16 15 18 18 17 15 14 14 13 10 8 7 5 5 11 11 8 8 7 5 4
2 3 3 5 6 7 7 8 11 13 14 13 11 11 10 5 7 8 4 5 6 7 11 14 18 15 13 13 14 14 12 5 7 5 3 9 11 12 9 7 5 3 1
4 3 2 3 4 5 5 7 8 8 7 8 8 8 6 7 4 0 5 7 5 11 11 13 15 11 6 5 6 10 5 6 5 5 4 8 10 10 8 6 4 1 3
3 2 3 4 4 4 5 5 4 4 5 6 9 7 6 5 4 2 1 1 3 9 7 8 9 4 5 4 5 4 6 6 4 4 5 7 9 8 7 5 2 4 4
5 5 5 3 3 4 3 4 5 4 5 5 7 9 6 3 4 3 1 3 2 4 7 7 4 5 5 7 3 5 4 5 4 3 5 7 6 7 6 4 6 7 8
7 6 4 1 2 3 4 4 5 5 5 6 6 7 6 3 3 3 2 2 2 4 5 6 6 5 6 6 4 2 4 6 5 3 3 7 7 6 7 7 9 9 10
7 5 3 2 2 3 4 5 5 5 6 6 5 5 7 4 2 3 2 2 5 6 7 10 8 7 7 7 6 2 2 5 5 6 3 5 8 8 7 7 8 9 10
5 3 4 1 1 3 6 6 5 5 5 5 5 5 7 5 4 3 2 3 3 5 5 9 9 7 7 6 7 6 2 5 5 6 5 3 5 7 8 9 10 12 13
3 5 2 0 2 4 5 5 5 5 4 5 4 4 6 6 6 3 2 2 2 6 8 4 10 8 6 5 5 5 2 5 4 6 5 4 4 6 10 15 14 12 13
4 4 2 0 3 5 5 5 6 6 3 3 4 3 3 5 6 4 2 2 3 5 9 9 7 8 10 7 6 5 3 3 3 4 5 5 6 6 6 15 17 15 13
3 3 2 1 3 4 4 4 3 3 3 4 3 2 3 3 6 5 4 2 3 5 8 8 9 8 8 8 7 5 3 3 4 3 6 6 7 8 7 7 7 9 16
1 1 2 3 4 3 2 3 3 3 5 2 3 3 3 2 4 5 3 3 4 4 9 11 9 11 6 7 7 6 6 6 7 4 6 6 8 8 7 7 5 4 6
1 1 2 3 3 3 1 2 3 3 3 4 4 5 2 2 3 4 4 3 4 3 11 11 10 6 3 9 4 3 4 3 6 6 6 6 8 6 7 8 8 8 6
2 2 2 3 3 2 3 3 2 2 2 2 5 4 3 2 3 4 4 5 4 4 4 10 11 7 6 7 9 3 3 3 4 3 7 5 7 6 7 6 8 7 7
2 1 2 3 3 2 3 2 3 1 2 3 6 6 5 3 3 4 4 6 5 5 9 9 9 7 6 8 3 2 2 5 4 4 3 5 6 7 6 4 5 6 6
2 1 2 3 2 3 3 3 2 3 2 4 5 7 6 4 3 4 4 7 8 7 8 11 11 9 6 6 5 3 2 3 5 4 4 3 4 4 3 4 4 5 4
1 1 2 3 3 3 3 3 3 3 5 5 7 7 6 4 3 4 6 7 9 10 9 11 11 11 8 7 4 4 4 3 3 4 4 3 3 2 2 3 3 3 3
Wind_Direction
344 344 349 350 355 356 353 351 354 334 310 281 258 209 204 196 183 178 184 185 184 178 162 167 159 145 144 136 126 119 109 98 121 114 110 107 110 96 108 101 100 96 94
329 351 357 357 354 354 351 347 348 340 307 267 246 221 210 206 196 186 188 186 187 187 170 157 161 147 138 131 123 116 111 99 100 117 111 102 116 105 105 108 99 95 87
0 358 359 357 357 352 350 345 351 353 330 306 255 232 222 212 211 205 194 191 186 188 173 151 143 132 132 128 125 122 117 111 104 90 97 104 115 103 105 109 106 104 95
5 2 358 355 356 356 353 346 350 348 341 323 295 256 233 225 215 215 206 194 195 189 172 151 137 138 139 134 125 121 120 116 108 100 107 106 106 99 99 90 94 99 88
6 358 351 355 355 355 354 352 350 346 348 335 312 287 249 237 231 216 215 200 192 182 168 152 139 150 145 139 130 126 123 113 107 108 109 106 108 98 86 84 81 85 75
357 351 349 355 355 353 353 352 351 346 347 346 344 325 276 251 243 240 223 215 199 180 162 150 144 150 151 146 136 130 123 122 120 115 105 109 111 102 87 85 82 76 78
350 356 352 356 357 352 350 352 353 349 348 347 336 330 336 307 237 228 249 228 203 182 162 153 152 154 158 150 142 136 129 121 119 114 114 109 112 115 113 95 92 84 79
341 346 352 3 359 353 352 355 354 350 346 345 344 317 306 327 8 339 246 231 205 167 164 159 162 156 156 154 146 140 134 125 123 118 112 115 119 115 110 105 94 90 85
335 333 354 4 355 352 350 356 353 351 346 343 343 345 304 302 313 327 330 231 210 182 186 167 166 155 150 145 142 139 129 127 131 131 126 127 127 117 110 106 99 90 77
314 339 349 352 349 349 341 355 351 349 344 342 339 350 335 289 259 275 294 308 318 210 185 176 168 150 147 141 139 136 129 123 133 131 137 147 132 115 112 107 98 86 68
286 317 340 344 346 347 338 349 346 346 342 341 335 352 337 300 258 256 279 284 276 231 222 197 163 142 131 130 133 130 130 130 128 123 136 138 126 114 121 114 105 101 58
298 311 327 322 335 342 342 347 343 340 338 334 330 340 335 331 327 84 241 242 228 144 139 200 141 107 96 118 117 120 134 135 125 127 130 134 118 122 120 115 106 55 344
270 277 297 306 320 343 345 344 345 338 337 333 330 333 325 336 343 304 356 315 162 174 145 139 125 108 106 91 109 110 134 131 125 127 128 115 121 120 114 105 70 328 348
236 247 241 253 331 336 340 344 332 337 334 333 325 316 316 342 327 351 356 3 177 112 132 116 123 118 115 108 112 118 122 121 125 121 110 88 91 114 109 78 66 55 62
229 235 241 251 305 329 338 331 330 330 325 319 319 315 314 326 334 317 351 296 254 133 123 121 113 136 127 105 73 51 123 112 126 121 107 89 72 79 77 61 48 44 43
233 229 228 254 337 324 331 325 319 319 315 315 311 307 310 307 339 309 341 319 241 197 164 153 150 149 129 122 117 121 146 123 140 122 114 98 85 73 71 65 63 53 41
230 202 222 263 283 320 327 322 319 316 318 308 308 310 318 316 313 320 324 239 207 120 141 149 131 137 129 111 122 102 214 122 133 123 112 115 100 72 65 67 72 58 53
185 185 197 83 334 323 314 312 314 313 316 301 292 331 315 320 320 313 299 320 164 146 127 123 143 141 135 131 129 113 119 105 135 110 113 113 109 106 70 77 67 59 56
180 163 160 119 341 325 325 323 319 317 315 322 315 302 357 324 311 311 280 266 26 165 144 143 154 164 159 157 132 124 119 105 112 107 128 100 91 90 87 73 63 47 54
157 125 124 31 344 341 331 324 319 325 335 315 299 327 353 320 307 312 314 353 218 221 147 150 159 159 155 150 143 135 115 102 85 98 107 96 89 82 79 69 67 53 52
167 112 43 352 1 352 343 338 326 326 324 326 317 317 342 341 319 308 292 274 242 251 161 158 149 159 162 145 142 124 67 72 69 50 82 82 78 72 67 67 73 67 53
250 339 360 13 342 332 331 302 280 301 297 288 296 321 336 358 301 281 268 283 287 262 167 157 161 169 147 160 135 121 137 103 60 38 67 76 79 75 74 64 66 63 57
260 277 344 344 335 328 336 318 318 313 306 311 338 333 329 334 293 276 266 258 257 255 181 168 172 165 146 162 159 128 135 125 124 56 55 72 79 78 73 68 67 65 62
253 249 324 349 337 329 334 356 1 30 342 328 311 302 314 337 303 280 276 251 238 241 205 175 169 173 146 158 126 87 60 125 145 136 106 66 69 71 74 70 71 66 58
123 274 332 346 339 320 351 8 5 358 315 310 324 323 332 340 341 299 295 255 232 224 228 174 170 170 164 156 150 134 94 76 99 145 132 140 85 66 71 74 75 70 63
162 319 344 1 324 326 343 355 17 10 354 354 349 339 332 339 318 306 315 279 224 210 218 167 163 167 162 152 137 156 140 156 148 132 120 119 121 109 84 77 75 71 58